| time (UTC) | temp C | wind direction | speed KPH | gust KPH | rain 1hr cm | rain 24hr cm | rain mn cm | humidity % | barometer mb |
| 20260506092403 | 23 | 239 | 3.2 | 3.2 | 0.00 | 0.00 | 0.00 | 91 | 1009.6 |
| 20260506091859 | 23 | 222 | 1.6 | 3.2 | 0.00 | 0.00 | 0.00 | 91 | 1009.3 |
| 20260506091357 | 23 | 169 | 1.6 | 3.2 | 0.00 | 0.00 | 0.00 | 91 | 1009.0 |
| 20260506090854 | 23 | 210 | 3.2 | 4.8 | 0.00 | 0.00 | 0.00 | 91 | 1009.3 |
| 20260506090352 | 23 | 191 | 3.2 | 3.2 | 0.00 | 0.00 | 0.00 | 91 | 1009.3 |
| 20260506085848 | 23 | 107 | 4.8 | 8.0 | 0.00 | 0.00 | 0.00 | 91 | 1009.3 |
| 20260506085345 | 23 | 187 | 1.6 | 1.6 | 0.00 | 0.00 | 0.00 | 91 | 1009.3 |
| 20260506084841 | 24 | 192 | 3.2 | 3.2 | 0.00 | 0.00 | 0.00 | 91 | 1009.3 |
| 20260506084338 | 24 | 200 | 4.8 | 4.8 | 0.00 | 0.00 | 0.00 | 91 | 1009.3 |
| 20260506083834 | 24 | 199 | 3.2 | 3.2 | 0.00 | 0.00 | 0.00 | 91 | 1009.3 |
| 20260506083332 | 24 | 208 | 8.0 | 11.3 | 0.00 | 0.00 | 0.00 | 91 | 1009.3 |
| 20260506082829 | 24 | 202 | 3.2 | 4.8 | 0.00 | 0.00 | 0.00 | 91 | 1009.3 |
| 20260506082326 | 24 | 204 | 6.4 | 8.0 | 0.00 | 0.00 | 0.00 | 91 | 1009.6 |
| 20260506081822 | 24 | 198 | 4.8 | 4.8 | 0.00 | 0.00 | 0.00 | 91 | 1009.6 |
| 20260506081320 | 24 | 266 | 0.0 | 1.6 | 0.00 | 0.00 | 0.00 | 91 | 1009.3 |
| 20260506080817 | 24 | 103 | 3.2 | 3.2 | 0.00 | 0.00 | 0.00 | 91 | 1009.3 |
| 20260506080313 | 24 | 225 | 3.2 | 3.2 | 0.00 | 0.00 | 0.00 | 90 | 1009.3 |
| 20260506073258 | 24 | 146 | 3.2 | 3.2 | 0.00 | 0.00 | 0.00 | 90 | 1009.6 |
| 20260506072754 | 24 | 233 | 3.2 | 3.2 | 0.00 | 0.00 | 0.00 | 90 | 1009.6 |
| 20260506072252 | 24 | 194 | 4.8 | 8.0 | 0.00 | 0.00 | 0.00 | 91 | 1010.0 |
| 20260506071750 | 24 | 204 | 8.0 | 11.3 | 0.00 | 0.00 | 0.00 | 90 | 1010.0 |
| 20260506071248 | 24 | 218 | 8.0 | 9.7 | 0.00 | 0.00 | 0.00 | 90 | 1010.0 |
| 20260506070744 | 24 | 191 | 4.8 | 4.8 | 0.00 | 0.00 | 0.00 | 90 | 1010.0 |
| 20260506070241 | 24 | 224 | 0.0 | 1.6 | 0.00 | 0.00 | 0.00 | 90 | 1010.0 |
| 20260506062218 | 24 | 179 | 3.2 | 4.8 | 0.00 | 0.00 | 0.00 | 90 | 1010.0 |
| 20260506061714 | 24 | 195 | 6.4 | 8.0 | 0.00 | 0.00 | 0.00 | 90 | 1010.0 |
| 20260506061212 | 24 | 168 | 3.2 | 8.0 | 0.00 | 0.00 | 0.00 | 90 | 1010.0 |
| 20260506060711 | 24 | 157 | 3.2 | 3.2 | 0.00 | 0.00 | 0.00 | 90 | 1010.0 |
| 20260506060207 | 24 | 189 | 3.2 | 4.8 | 0.00 | 0.00 | 0.00 | 90 | 1010.0 |
| 20260506051139 | 25 | 252 | 4.8 | 8.0 | 0.00 | 0.00 | 0.00 | 88 | 1010.0 |
| 20260506050637 | 25 | 182 | 4.8 | 4.8 | 0.00 | 0.00 | 0.00 | 88 | 1010.0 |
| 20260506050134 | 25 | 209 | 3.2 | 3.2 | 0.00 | 0.00 | 0.00 | 88 | 1010.0 |
| 20260506045127 | 25 | 240 | 1.6 | 3.2 | 0.00 | 0.00 | 0.00 | 88 | 1010.0 |
| 20260506044625 | 25 | 179 | 6.4 | 11.3 | 0.00 | 0.00 | 0.00 | 88 | 1010.0 |
| 20260506044122 | 25 | 162 | 3.2 | 4.8 | 0.00 | 0.00 | 0.00 | 88 | 1010.0 |
| 20260506043619 | 25 | 187 | 1.6 | 3.2 | 0.00 | 0.00 | 0.00 | 88 | 1010.0 |
| 20260506043117 | 25 | 148 | 3.2 | 3.2 | 0.00 | 0.00 | 0.00 | 87 | 1010.0 |
| 20260506042616 | 25 | 241 | 4.8 | 8.0 | 0.00 | 0.00 | 0.00 | 87 | 1010.0 |
| 20260506042113 | 25 | 208 | 1.6 | 4.8 | 0.00 | 0.00 | 0.00 | 87 | 1010.0 |
| 20260506041612 | 25 | 189 | 3.2 | 8.0 | 0.00 | 0.00 | 0.00 | 87 | 1010.0 |
| 20260506041108 | 25 | 198 | 4.8 | 4.8 | 0.00 | 0.00 | 0.00 | 87 | 1010.0 |
| 20260506040606 | 25 | 181 | 1.6 | 3.2 | 0.00 | 0.00 | 0.00 | 87 | 1009.6 |
| 20260506035559 | 25 | 157 | 4.8 | 8.0 | 0.00 | 0.00 | 0.00 | 86 | 1009.6 |
| 20260506035056 | 25 | 200 | 4.8 | 4.8 | 0.00 | 0.00 | 0.00 | 86 | 1009.6 |
| 20260506034553 | 25 | 136 | 3.2 | 3.2 | 0.00 | 0.00 | 0.00 | 86 | 1009.6 |
| 20260506034050 | 25 | 224 | 1.6 | 3.2 | 0.00 | 0.00 | 0.00 | 86 | 1009.6 |
| 20260506033547 | 25 | 83 | 1.6 | 3.2 | 0.00 | 0.00 | 0.00 | 86 | 1009.6 |
| 20260506033044 | 25 | 201 | 3.2 | 4.8 | 0.00 | 0.00 | 0.00 | 86 | 1009.3 |
| 20260506032542 | 25 | 209 | 3.2 | 4.8 | 0.00 | 0.00 | 0.00 | 85 | 1009.0 |
| 20260506032038 | 25 | 236 | 4.8 | 4.8 | 0.00 | 0.00 | 0.00 | 84 | 1009.3 |
| 20260506031536 | 25 | 184 | 0.0 | 0.0 | 0.00 | 0.00 | 0.00 | 84 | 1009.0 |
| 20260506031033 | 25 | 229 | 4.8 | 8.0 | 0.00 | 0.00 | 0.00 | 84 | 1009.0 |
| 20260506030531 | 25 | 230 | 6.4 | 9.7 | 0.00 | 0.00 | 0.00 | 84 | 1009.0 |
| 20260506030028 | 25 | 169 | 3.2 | 4.8 | 0.00 | 0.00 | 0.00 | 85 | 1008.6 |
| 20260506025525 | 25 | 190 | 3.2 | 4.8 | 0.00 | 0.00 | 0.00 | 85 | 1008.6 |
| 20260506025021 | 25 | 201 | 9.7 | 12.9 | 0.00 | 0.00 | 0.00 | 85 | 1008.6 |
| 20260506024518 | 25 | 192 | 1.6 | 3.2 | 0.00 | 0.00 | 0.00 | 85 | 1008.6 |
| 20260506024014 | 25 | 219 | 1.6 | 3.2 | 0.00 | 0.00 | 0.00 | 85 | 1008.6 |
| 20260506023510 | 25 | 204 | 3.2 | 3.2 | 0.00 | 0.00 | 0.00 | 85 | 1008.3 |
| 20260506023008 | 25 | 171 | 0.0 | 1.6 | 0.00 | 0.00 | 0.00 | 84 | 1008.3 |
| 20260506022505 | 25 | 263 | 1.6 | 3.2 | 0.00 | 0.00 | 0.00 | 84 | 1008.3 |
| 20260506022003 | 25 | 207 | 1.6 | 1.6 | 0.00 | 0.00 | 0.00 | 83 | 1008.3 |
| 20260506021500 | 26 | 57 | 4.8 | 8.0 | 0.00 | 0.00 | 0.00 | 83 | 1008.0 |
| 20260506020957 | 26 | 128 | 6.4 | 9.7 | 0.00 | 0.00 | 0.00 | 83 | 1008.0 |
| 20260506020455 | 26 | 151 | 3.2 | 4.8 | 0.00 | 0.00 | 0.00 | 82 | 1007.6 |
| 20260506015951 | 26 | 193 | 1.6 | 4.8 | 0.00 | 0.00 | 0.00 | 81 | 1008.0 |
| 20260506015449 | 26 | 230 | 1.6 | 1.6 | 0.00 | 0.00 | 0.00 | 81 | 1008.0 |
| 20260506014946 | 26 | 222 | 1.6 | 3.2 | 0.00 | 0.00 | 0.00 | 81 | 1008.0 |
| 20260506014443 | 26 | 233 | 0.0 | 1.6 | 0.00 | 0.00 | 0.00 | 80 | 1008.0 |
| 20260506013939 | 26 | 234 | 0.0 | 1.6 | 0.00 | 0.00 | 0.00 | 79 | 1007.6 |
| 20260506013437 | 26 | 187 | 1.6 | 1.6 | 0.00 | 0.00 | 0.00 | 79 | 1007.6 |
| 20260506012933 | 26 | 244 | 0.0 | 1.6 | 0.00 | 0.00 | 0.00 | 79 | 1008.0 |
| 20260506012430 | 27 | 226 | 0.0 | 0.0 | 0.00 | 0.00 | 0.00 | 78 | 1008.0 |
| 20260506011927 | 27 | 222 | 0.0 | 1.6 | 0.00 | 0.00 | 0.00 | 77 | 1008.0 |
| 20260506011425 | 27 | 236 | 0.0 | 1.6 | 0.00 | 0.00 | 0.00 | 77 | 1008.0 |
| 20260506010921 | 27 | 228 | 1.6 | 1.6 | 0.00 | 0.00 | 0.00 | 76 | 1007.6 |
| 20260506010420 | 27 | 225 | 1.6 | 1.6 | 0.00 | 0.00 | 0.00 | 76 | 1007.6 |
| 20260506005916 | 27 | 195 | 0.0 | 1.6 | 0.00 | 0.00 | 0.00 | 75 | 1007.6 |
| 20260506005414 | 27 | 218 | 1.6 | 1.6 | 0.00 | 0.00 | 0.00 | 74 | 1007.6 |
| 20260506004909 | 27 | 240 | 0.0 | 1.6 | 0.00 | 0.00 | 0.00 | 74 | 1007.6 |
| 20260506004407 | 28 | 216 | 1.6 | 1.6 | 0.00 | 0.00 | 0.00 | 73 | 1007.6 |
| 20260506003903 | 28 | 246 | 1.6 | 1.6 | 0.00 | 0.00 | 0.00 | 73 | 1007.3 |
| 20260506003359 | 28 | 222 | 1.6 | 1.6 | 0.00 | 0.00 | 0.00 | 73 | 1007.3 |
| 20260506002856 | 28 | 212 | 0.0 | 1.6 | 0.00 | 0.00 | 0.00 | 73 | 1007.6 |
| 20260506002352 | 28 | 205 | 1.6 | 3.2 | 0.00 | 0.00 | 0.00 | 73 | 1007.6 |
| 20260506001848 | 28 | 222 | 1.6 | 1.6 | 0.00 | 0.00 | 0.00 | 73 | 1007.6 |
| 20260506001345 | 28 | 245 | 1.6 | 1.6 | 0.00 | 0.00 | 0.00 | 73 | 1007.3 |
| 20260506000842 | 28 | 228 | 0.0 | 1.6 | 0.00 | 0.00 | 0.00 | 72 | 1007.3 |
| 20260506000340 | 28 | 223 | 3.2 | 3.2 | 0.00 | 0.00 | 0.00 | 72 | 1007.6 |
| 20260505235836 | 28 | 240 | 0.0 | 1.6 | 0.00 | 0.00 | 0.00 | 72 | 1007.3 |
| 20260505235334 | 28 | 209 | 3.2 | 4.8 | 0.00 | 0.00 | 0.00 | 71 | 1007.6 |
| 20260505234830 | 28 | 198 | 4.8 | 9.7 | 0.00 | 0.00 | 0.00 | 72 | 1006.9 |
| 20260505234328 | 28 | 224 | 4.8 | 8.0 | 0.00 | 0.00 | 0.00 | 72 | 1007.3 |
| 20260505233825 | 28 | 230 | 3.2 | 3.2 | 0.00 | 0.00 | 0.00 | 72 | 1007.3 |
| 20260505233323 | 28 | 210 | 4.8 | 4.8 | 0.00 | 0.00 | 0.00 | 72 | 1007.3 |
| 20260505232820 | 28 | 200 | 1.6 | 3.2 | 0.00 | 0.00 | 0.00 | 71 | 1007.3 |
| 20260505232318 | 28 | 158 | 4.8 | 8.0 | 0.00 | 0.00 | 0.00 | 71 | 1007.3 |
| 20260505231814 | 28 | 207 | 1.6 | 3.2 | 0.00 | 0.00 | 0.00 | 71 | 1007.3 |
| 20260505231312 | 28 | 149 | 3.2 | 3.2 | 0.00 | 0.00 | 0.00 | 71 | 1007.3 |
| 20260505230810 | 28 | 143 | 8.0 | 11.3 | 0.00 | 0.00 | 0.00 | 70 | 1007.3 |
| 20260505230307 | 28 | 210 | 3.2 | 4.8 | 0.00 | 0.00 | 0.00 | 71 | 1007.3 |
| 20260505225803 | 28 | 239 | 3.2 | 4.8 | 0.00 | 0.00 | 0.00 | 71 | 1006.9 |
| 20260505225301 | 28 | 220 | 1.6 | 3.2 | 0.00 | 0.00 | 0.00 | 71 | 1006.9 |
| 20260505224755 | 28 | 175 | 4.8 | 8.0 | 0.00 | 0.00 | 0.00 | 70 | 1006.9 |
| 20260505224254 | 28 | 193 | 3.2 | 4.8 | 0.00 | 0.00 | 0.00 | 70 | 1006.9 |
| 20260505223751 | 28 | 199 | 4.8 | 8.0 | 0.00 | 0.00 | 0.00 | 69 | 1006.9 |
| 20260505223247 | 28 | 168 | 4.8 | 8.0 | 0.00 | 0.00 | 0.00 | 69 | 1006.9 |
| 20260505222743 | 29 | 200 | 4.8 | 8.0 | 0.00 | 0.00 | 0.00 | 69 | 1006.9 |
| 20260505222240 | 29 | 118 | 3.2 | 3.2 | 0.00 | 0.00 | 0.00 | 69 | 1006.9 |
| 20260505221737 | 28 | 96 | 4.8 | 8.0 | 0.00 | 0.00 | 0.00 | 69 | 1007.3 |
| 20260505221233 | 29 | 185 | 8.0 | 9.7 | 0.00 | 0.00 | 0.00 | 69 | 1007.3 |
| 20260505220730 | 28 | 238 | 4.8 | 8.0 | 0.00 | 0.00 | 0.00 | 69 | 1007.3 |
| 20260505220228 | 28 | 221 | 4.8 | 4.8 | 0.00 | 0.00 | 0.00 | 70 | 1007.3 |
| 20260505215726 | 28 | 206 | 1.6 | 3.2 | 0.00 | 0.00 | 0.00 | 70 | 1006.9 |
| 20260505215223 | 28 | 185 | 4.8 | 4.8 | 0.00 | 0.00 | 0.00 | 71 | 1007.3 |
| 20260505214721 | 29 | 160 | 4.8 | 9.7 | 0.00 | 0.00 | 0.00 | 70 | 1007.6 |
| 20260505214218 | 29 | 199 | 3.2 | 4.8 | 0.00 | 0.00 | 0.00 | 70 | 1007.6 |
| 20260505213715 | 28 | 229 | 4.8 | 9.7 | 0.00 | 0.00 | 0.00 | 70 | 1007.6 |
| 20260505213212 | 28 | 148 | 4.8 | 4.8 | 0.00 | 0.00 | 0.00 | 70 | 1007.6 |
| 20260505212708 | 29 | 182 | 11.3 | 12.9 | 0.00 | 0.00 | 0.00 | 69 | 1007.6 |
| 20260505212206 | 29 | 226 | 3.2 | 4.8 | 0.00 | 0.00 | 0.00 | 68 | 1007.6 |
| 20260505211702 | 29 | 209 | 4.8 | 8.0 | 0.00 | 0.00 | 0.00 | 69 | 1007.6 |
| 20260505211200 | 28 | 178 | 4.8 | 4.8 | 0.00 | 0.00 | 0.00 | 70 | 1008.0 |
| 20260505210656 | 28 | 193 | 4.8 | 8.0 | 0.00 | 0.00 | 0.00 | 71 | 1007.6 |
| 20260505210153 | 29 | 248 | 3.2 | 4.8 | 0.00 | 0.00 | 0.00 | 70 | 1008.0 |
| 20260505205651 | 28 | 225 | 8.0 | 11.3 | 0.00 | 0.00 | 0.00 | 69 | 1008.0 |
| 20260505205149 | 28 | 197 | 6.4 | 9.7 | 0.00 | 0.00 | 0.00 | 70 | 1008.0 |
| 20260505204645 | 28 | 187 | 6.4 | 8.0 | 0.00 | 0.00 | 0.00 | 72 | 1008.3 |
| 20260505204143 | 28 | 132 | 4.8 | 9.7 | 0.00 | 0.00 | 0.00 | 73 | 1008.3 |
| 20260505203640 | 28 | 205 | 6.4 | 9.7 | 0.00 | 0.00 | 0.00 | 70 | 1008.3 |
| 20260505203137 | 28 | 274 | 3.2 | 3.2 | 0.00 | 0.00 | 0.00 | 71 | 1008.6 |
| 20260505202632 | 28 | 167 | 4.8 | 8.0 | 0.00 | 0.00 | 0.00 | 71 | 1008.6 |
| 20260505202128 | 28 | 198 | 4.8 | 4.8 | 0.00 | 0.00 | 0.00 | 72 | 1009.0 |
| 20260505201625 | 28 | 176 | 4.8 | 4.8 | 0.00 | 0.00 | 0.00 | 72 | 1008.6 |
| 20260505201123 | 28 | 184 | 3.2 | 3.2 | 0.00 | 0.00 | 0.00 | 72 | 1008.6 |
| 20260505200621 | 28 | 180 | 4.8 | 4.8 | 0.00 | 0.00 | 0.00 | 72 | 1009.0 |
| 20260505200118 | 28 | 214 | 4.8 | 4.8 | 0.00 | 0.00 | 0.00 | 71 | 1009.0 |
| 20260505195614 | 27 | 201 | 6.4 | 8.0 | 0.00 | 0.00 | 0.00 | 72 | 1009.0 |
| 20260505195111 | 28 | 177 | 3.2 | 4.8 | 0.00 | 0.00 | 0.00 | 72 | 1009.0 |
| 20260505194608 | 27 | 219 | 6.4 | 8.0 | 0.00 | 0.00 | 0.00 | 73 | 1009.0 |
| 20260505194104 | 27 | 214 | 4.8 | 4.8 | 0.00 | 0.00 | 0.00 | 73 | 1009.0 |
| 20260505193601 | 27 | 165 | 8.0 | 11.3 | 0.00 | 0.00 | 0.00 | 75 | 1009.3 |
| 20260505193058 | 26 | 237 | 3.2 | 3.2 | 0.00 | 0.00 | 0.00 | 76 | 1009.3 |
| 20260505192557 | 27 | 174 | 9.7 | 12.9 | 0.00 | 0.00 | 0.00 | 75 | 1009.3 |
| 20260505192054 | 27 | 207 | 3.2 | 3.2 | 0.00 | 0.00 | 0.00 | 75 | 1009.3 |
| 20260505191552 | 27 | 240 | 8.0 | 11.3 | 0.00 | 0.00 | 0.00 | 75 | 1009.3 |
| 20260505191050 | 27 | 225 | 8.0 | 12.9 | 0.00 | 0.00 | 0.00 | 75 | 1009.3 |
| 20260505190544 | 26 | 186 | 6.4 | 8.0 | 0.00 | 0.00 | 0.00 | 77 | 1009.6 |
| 20260505190040 | 26 | 196 | 8.0 | 11.3 | 0.00 | 0.00 | 0.00 | 76 | 1009.3 |
| 20260505185537 | 26 | 115 | 4.8 | 9.7 | 0.00 | 0.00 | 0.00 | 76 | 1009.6 |
| 20260505185034 | 26 | 224 | 8.0 | 9.7 | 0.00 | 0.00 | 0.00 | 77 | 1009.6 |
| 20260505184531 | 26 | 211 | 1.6 | 3.2 | 0.00 | 0.00 | 0.00 | 77 | 1009.6 |
| 20260505184027 | 26 | 220 | 4.8 | 4.8 | 0.00 | 0.00 | 0.00 | 78 | 1009.6 |
| 20260505183524 | 26 | 287 | 4.8 | 8.0 | 0.00 | 0.00 | 0.00 | 78 | 1010.0 |
| 20260505183022 | 26 | 193 | 4.8 | 4.8 | 0.00 | 0.00 | 0.00 | 77 | 1009.6 |
| 20260505182517 | 26 | 213 | 6.4 | 11.3 | 0.00 | 0.00 | 0.00 | 78 | 1010.0 |
| 20260505182014 | 25 | 232 | 4.8 | 9.7 | 0.00 | 0.00 | 0.00 | 79 | 1010.0 |
| 20260505181511 | 25 | 218 | 11.3 | 14.5 | 0.00 | 0.00 | 0.00 | 79 | 1010.0 |
| 20260505181009 | 25 | 235 | 4.8 | 8.0 | 0.00 | 0.00 | 0.00 | 81 | 1010.0 |
| 20260505180504 | 25 | 310 | 1.6 | 1.6 | 0.00 | 0.00 | 0.00 | 80 | 1010.3 |
| 20260505180002 | 25 | 197 | 6.4 | 8.0 | 0.00 | 0.00 | 0.00 | 81 | 1010.0 |
| 20260505175457 | 25 | 210 | 8.0 | 11.3 | 0.00 | 0.00 | 0.00 | 82 | 1010.0 |
| 20260505174954 | 25 | 201 | 6.4 | 9.7 | 0.00 | 0.00 | 0.00 | 82 | 1010.3 |
| 20260505174451 | 25 | 230 | 4.8 | 8.0 | 0.00 | 0.00 | 0.00 | 81 | 1010.3 |
| 20260505173947 | 25 | 250 | 6.4 | 9.7 | 0.00 | 0.00 | 0.00 | 81 | 1010.3 |
| 20260505173443 | 24 | 229 | 8.0 | 9.7 | 0.00 | 0.00 | 0.00 | 82 | 1010.3 |
| 20260505172941 | 24 | 229 | 8.0 | 11.3 | 0.00 | 0.00 | 0.00 | 82 | 1010.3 |
| 20260505172439 | 24 | 218 | 6.4 | 9.7 | 0.00 | 0.00 | 0.00 | 83 | 1010.3 |
| 20260505171938 | 24 | 207 | 8.0 | 9.7 | 0.00 | 0.00 | 0.00 | 83 | 1010.3 |
| 20260505171435 | 24 | 222 | 6.4 | 8.0 | 0.00 | 0.00 | 0.00 | 83 | 1010.3 |
| 20260505170932 | 24 | 204 | 9.7 | 11.3 | 0.00 | 0.00 | 0.00 | 82 | 1010.7 |
| 20260505170429 | 24 | 224 | 4.8 | 9.7 | 0.00 | 0.00 | 0.00 | 83 | 1010.7 |
| 20260505165924 | 24 | 213 | 3.2 | 3.2 | 0.00 | 0.00 | 0.00 | 83 | 1010.7 |
| 20260505165420 | 24 | 205 | 6.4 | 8.0 | 0.00 | 0.00 | 0.00 | 83 | 1010.3 |
| 20260505164915 | 24 | 258 | 4.8 | 8.0 | 0.00 | 0.00 | 0.00 | 84 | 1010.7 |
| 20260505164413 | 23 | 254 | 6.4 | 8.0 | 0.00 | 0.00 | 0.00 | 84 | 1010.3 |
| 20260505163911 | 23 | 202 | 8.0 | 9.7 | 0.00 | 0.00 | 0.00 | 85 | 1010.3 |
| 20260505163410 | 23 | 211 | 6.4 | 8.0 | 0.00 | 0.00 | 0.00 | 86 | 1010.7 |
| 20260505162908 | 23 | 274 | 3.2 | 4.8 | 0.00 | 0.00 | 0.00 | 86 | 1010.3 |
| 20260505162403 | 23 | 217 | 8.0 | 11.3 | 0.00 | 0.00 | 0.00 | 87 | 1010.7 |
| 20260505161901 | 23 | 225 | 6.4 | 9.7 | 0.00 | 0.00 | 0.00 | 88 | 1010.7 |
| 20260505161357 | 22 | 249 | 1.6 | 4.8 | 0.00 | 0.00 | 0.00 | 88 | 1010.3 |
| 20260505160854 | 22 | 176 | 3.2 | 4.8 | 0.00 | 0.00 | 0.00 | 89 | 1010.7 |
| 20260505160353 | 22 | 208 | 4.8 | 4.8 | 0.00 | 0.00 | 0.00 | 89 | 1010.3 |
| 20260505153331 | 22 | 250 | 9.7 | 11.3 | 0.00 | 0.00 | 0.00 | 89 | 1010.7 |
| 20260505152828 | 22 | 255 | 3.2 | 4.8 | 0.00 | 0.00 | 0.00 | 90 | 1010.7 |
| 20260505152325 | 22 | 205 | 4.8 | 8.0 | 0.00 | 0.00 | 0.00 | 90 | 1010.7 |
| 20260505151820 | 22 | 215 | 4.8 | 4.8 | 0.00 | 0.00 | 0.00 | 90 | 1010.3 |
| 20260505151317 | 22 | 273 | 4.8 | 8.0 | 0.00 | 0.00 | 0.00 | 90 | 1010.3 |
| 20260505150814 | 22 | 69 | 4.8 | 8.0 | 0.00 | 0.00 | 0.00 | 91 | 1010.3 |
| 20260505150311 | 22 | 226 | 3.2 | 4.8 | 0.00 | 0.00 | 0.00 | 91 | 1010.3 |
| 20260505140235 | 22 | 281 | 6.4 | 8.0 | 0.00 | 0.00 | 0.00 | 91 | 1010.0 |
| 20260505130159 | 21 | 217 | 3.2 | 4.8 | 0.00 | 0.00 | 0.00 | 91 | 1009.6 |
| 20260505124649 | 21 | 154 | 8.0 | 11.3 | 0.00 | 0.00 | 0.00 | 91 | 1009.6 |
| 20260505124145 | 21 | 178 | 6.4 | 8.0 | 0.00 | 0.00 | 0.00 | 91 | 1009.3 |
| 20260505123641 | 21 | 199 | 1.6 | 3.2 | 0.00 | 0.00 | 0.00 | 91 | 1009.3 |
| 20260505123138 | 21 | 229 | 4.8 | 8.0 | 0.00 | 0.00 | 0.00 | 91 | 1009.3 |
| 20260505122635 | 21 | 238 | 4.8 | 4.8 | 0.00 | 0.00 | 0.00 | 91 | 1009.3 |
| 20260505122132 | 21 | 196 | 4.8 | 9.7 | 0.00 | 0.00 | 0.00 | 90 | 1009.0 |
| 20260505121629 | 21 | 167 | 4.8 | 8.0 | 0.00 | 0.00 | 0.00 | 90 | 1009.3 |
| 20260505121125 | 21 | 197 | 6.4 | 8.0 | 0.00 | 0.00 | 0.00 | 91 | 1009.3 |
| 20260505120621 | 21 | 227 | 4.8 | 8.0 | 0.00 | 0.00 | 0.00 | 91 | 1009.0 |
| 20260505120117 | 21 | 232 | 3.2 | 3.2 | 0.00 | 0.00 | 0.00 | 90 | 1008.6 |
| 20260505115612 | 21 | 201 | 8.0 | 9.7 | 0.00 | 0.00 | 0.00 | 90 | 1009.0 |
| 20260505115110 | 21 | 208 | 4.8 | 8.0 | 0.00 | 0.00 | 0.00 | 90 | 1009.0 |
| 20260505114606 | 21 | 184 | 11.3 | 14.5 | 0.00 | 0.00 | 0.00 | 90 | 1009.0 |
| 20260505114103 | 21 | 158 | 4.8 | 4.8 | 0.00 | 0.00 | 0.00 | 89 | 1008.6 |
| 20260505113559 | 21 | 234 | 11.3 | 14.5 | 0.00 | 0.00 | 0.00 | 89 | 1009.0 |
| 20260505113056 | 21 | 200 | 4.8 | 8.0 | 0.00 | 0.00 | 0.00 | 89 | 1009.0 |
| 20260505112552 | 21 | 129 | 8.0 | 11.3 | 0.00 | 0.00 | 0.00 | 88 | 1009.0 |
| 20260505112050 | 21 | 221 | 8.0 | 12.9 | 0.00 | 0.00 | 0.00 | 88 | 1009.0 |
| 20260505111544 | 21 | 173 | 6.4 | 8.0 | 0.00 | 0.00 | 0.00 | 88 | 1009.0 |
| 20260505111040 | 21 | 178 | 8.0 | 11.3 | 0.00 | 0.00 | 0.00 | 88 | 1009.3 |
| 20260505110537 | 21 | 201 | 3.2 | 4.8 | 0.00 | 0.00 | 0.00 | 88 | 1009.3 |
| 20260505102009 | 21 | 176 | 6.4 | 9.7 | 0.00 | 0.00 | 0.00 | 89 | 1009.0 |
| 20260505101508 | 21 | 215 | 0.0 | 0.0 | 0.00 | 0.00 | 0.00 | 89 | 1009.3 |
| 20260505101004 | 21 | 127 | 3.2 | 3.2 | 0.00 | 0.00 | 0.00 | 89 | 1009.3 |
| 20260505100501 | 21 | 217 | 6.4 | 8.0 | 0.00 | 0.00 | 0.00 | 89 | 1009.3 |
| 20260505095957 | 21 | 259 | 6.4 | 9.7 | 0.00 | 0.00 | 0.00 | 88 | 1009.0 |
| 20260505095454 | 21 | 226 | 8.0 | 11.3 | 0.00 | 0.00 | 0.00 | 88 | 1009.0 |
| 20260505094950 | 21 | 214 | 8.0 | 11.3 | 0.00 | 0.00 | 0.00 | 88 | 1009.0 |
| 20260505094447 | 21 | 144 | 6.4 | 8.0 | 0.00 | 0.00 | 0.00 | 88 | 1009.0 |
| 20260505093943 | 21 | 252 | 6.4 | 9.7 | 0.00 | 0.00 | 0.00 | 88 | 1009.3 |
| 20260505093440 | 21 | 223 | 6.4 | 11.3 | 0.00 | 0.00 | 0.00 | 88 | 1009.3 |
| 20260505092937 | 21 | 193 | 8.0 | 12.9 | 0.00 | 0.00 | 0.00 | 88 | 1009.0 |